Regional Weather Roundup
Issued by NWS

Home | Current Version | Previous Version | Graphics & Text | Print | Product List | Glossary On
Versions: 1 2 3 4 5 6 7 8 9 10 11 12 13 14 15 16 17 18 19 20 21 22 23 24 25 26 27 28 29 30 31 32 33 34 35 36 37 38 39 40 41 42 43 44 45 46 47 48 49 50
191
ASUS43 KDMX 260303
RWRIA

WEATHER ROUNDUP FOR IOWA
NATIONAL WEATHER SERVICE DES MOINES IA
1000 PM CDT THU AUG 25 2016

NOTE: "FAIR" INDICATES FEW OR NO CLOUDS BELOW 12,000 FEET WITH NO
SIGNIFICANT WEATHER AND/OR OBSTRUCTIONS TO VISIBILITY.

* - THESE STATIONS ARE NOT NWS STATIONS...THUS NOT UNDER NWS
QUALITY CONTROL.  THEY ALSO DO NOT REPORT WEATHER SUCH
AS PRECIPITATION OR FOG.

IAZ001>003-012>014-020>022-031>034-043>046-260400-
   NORTHWEST IOWA

CITY           SKY/WX    TMP DP  RH WIND       PRES   REMARKS
CARROLL *      CLEAR     61  59  94 NW5       30.15R
CHEROKEE *     CLEAR     61  60  96 CALM      30.16R
DENISON *      CLEAR     61  59  94 CALM      30.15R
LE MARS *      CLEAR     61  59  94 CALM      30.17R
ORANGE CITY *  CLEAR     63  57  82 CALM      30.17R
SHELDON *      CLEAR     57  57 100 CALM      30.15R
SIOUX CITY     CLEAR     61  58  90 SW3       30.16R
SPENCER        CLEAR     58  56  93 CALM      30.16R
STORM LAKE *   CLEAR     63  59  88 W6        30.17R
$$

IAZ055>058-069>071-079>083-090>094-260400-
   SOUTHWEST IOWA

CITY           SKY/WX    TMP DP  RH WIND       PRES   REMARKS
ATLANTIC *     CLOUDY    64  63  94 CALM      30.14S
AUDUBON *      CLEAR     61  57  88 CALM      30.17R
CLARINDA *       N/A     63  63 100 MISG      30.15S
COUNCIL BLFS * CLOUDY    64  63  94 N6        30.15R
CRESTON *      CLEAR     66  63  88 NE6       30.15F
HARLAN  *      CLEAR     63  61  94 N5        30.18S
LAMONI         PTCLDY    65  64  97 N3        30.12S
RED OAK *      CLOUDY    64  63  94 CALM      30.14S
SHENANDOAH *   CLEAR     63 N/A N/A CALM      30.14S
$$

IAZ047>049-059>061-072>074-084-260400-
   CENTRAL IOWA

CITY           SKY/WX    TMP DP  RH WIND       PRES   REMARKS
AMES           CLEAR     63  63 100 NW3       30.13R
ANKENY *         N/A    N/A N/A N/A MISG        N/A
BOONE *        CLEAR     66  63  88 CALM      30.14R
CHARITON *       N/A     64  63  94 MISG      30.12S
DES MOINES     PTCLDY    70  63  78 CALM      30.12R
GRINNELL*      PTCLDY    64  62  94 W3        30.14R
KNOXVILLE *    PTCLDY    66  63  88 NW5       30.11S
MARSHALLTOWN   CLEAR     64  62  93 W3        30.12R
NEWTON *       CLEAR     64  64 100 CALM      30.12S
PELLA *        PTCLDY    64  63  95 CALM      30.13S
PERRY *          N/A     64  63  99 SW3       30.14R
$$

IAZ004>006-015-016-023>025-035-036-260400-
   NORTH CENTRAL IOWA

CITY           SKY/WX    TMP DP  RH WIND       PRES   REMARKS
ALGONA *       CLEAR     64  59  82 NW6       30.15R
ESTHERVILLE    CLEAR     57  57 100 NW6       30.15R
FORT DODGE *   CLEAR     61  55  82 NW3       30.15R
MASON CITY     CLEAR     60  58  92 CALM      30.15R
FOREST CITY *    N/A    N/A N/A N/A MISG        N/A
WEBSTER CITY * CLEAR     63  61  94 NW7       30.12R
IOWA FALLS *     N/A     65  61  88 CALM      30.15R
$$

IAZ007>011-017>019-026>030-037>042-050>054-066-260400-
   NORTHEAST IOWA

CITY           SKY/WX    TMP DP  RH WIND       PRES   REMARKS
CEDAR RAPIDS   PTCLDY    64  64 100 CALM      30.11R
CHARLES CITY * CLEAR     63  63 100 NW5       30.13R
CLINTON *      CLEAR     66  64  93 NW3       30.10S
DECORAH *      CLEAR     64  61  88 CALM      30.11S
DUBUQUE        CLOUDY    65  62  90 CALM      30.12R
MONTICELLO *   CLOUDY    64  64 100 CALM      30.10S
OELWEIN *      CLEAR     64  61  88 W6        30.13R
WATERLOO       CLEAR     63  60  90 W5        30.11R
$$

IAZ064-065-067-068-078-260400-
   EAST CENTRAL IOWA

CITY           SKY/WX    TMP DP  RH WIND       PRES   REMARKS
DAVENPORT      CLEAR     65  64  97 CALM      30.11R
IOWA CITY      PTCLDY    67  64  90 W3        30.12R
MT. PLEASANT * PTCLDY    68  68  99 N5        30.11R
MUSCATINE *    PTCLDY    68  66  94 NW3       30.10S
QUAD CITIES    CLEAR     66  62  87 S3        30.10R
$$

IAZ062-063-075>077-085>089-095>099-260400-
   SOUTHEAST IOWA

CITY           SKY/WX    TMP DP  RH WIND       PRES   REMARKS
BURLINGTON     CLOUDY    70  65  84 N6        30.10R
FAIRFIELD *    PTCLDY    68  64  88 N3        30.11S
FORT MADISON * CLOUDY    66  66 100 N3        30.11R
KEOKUK *       CLOUDY    72  66  83 NE5       30.09R
OSKALOOSA *      N/A     66  64  95 CALM      30.12S
OTTUMWA        CLOUDY    69  64  84 N5        30.11S
WASHINGTON *   MOCLDY    68  66  94 N6        30.12S
$$

ABBREVIATIONS USED IN REMARKS
   TC - TEMPERATURES IN CELSIUS
  WCI - WIND CHILL INDEX
   HX - HEAT INDEX
  VSB - VISIBILITY
$$





USA.gov is the U.S. government's official web portal to all federal, state and local government web resources and services.